www.pogodaiklimat.ru

Погода и климат >> Архив погоды >> Россия >> Нижегородская область >> Нижний Новгород


АРХИВ ПОГОДЫ в Нижнем Новгороде

Время (UTC), дата Ветер
(напр.,м/с)
 
Видим.   Явления Облачность Т
(С)
Тd
(С)
f
(%)
Тe
(С)
Тes
(С)
Комфортность P
(гПа)
Po
(гПа)
Тmin
(С)
Tmax
(С)
R
(мм)
R24
(мм)
S
(см)
21 14.11 Ю 2-4
{6}
10 км 10/0
[Ac trans Ci fib]
-3.2 -14.3 42 -6 -6 по сезону 1034.4 1014.0
00 15.11 ЮЗ 1-3
{6}
10 км 6/0
[Ac trans Ci fib]
-4.3 -13.9 47 -6 -6 по сезону 1035.4 1014.9
03 15.11 ЮЗ 1-3
{6}
10 км ясно -5.4 -14.1 50 -7 -7 по сезону 1036.9 1016.3 -5.7 <0.5
06 15.11 ЮЗ 2-4
{8}
10 км 4/0
[Ac trans Ci fib]
-5.2 -13.7 51 -9 -9 по сезону 1038.5 1017.9 -5.9
09 15.11 З 1-2
{5}
10 км ясно -1.7 -10.5 51 -3 -2 по сезону 1039.5 1019.1
12 15.11 Ю 2-4
{5}
10 км 1/0
[Ac trans]
-0.6 -11.6 43 -3 -3 по сезону 1040.3 1020.0
15 15.11 Ю 1-2
{4}
10 км ясно -2.7 -12.2 48 -4 -4 по сезону 1041.5 1021.0 -0.3
18 15.11 штиль 0
{4}
10 км ясно -4.7 -12.9 53 -5 -5 по сезону 1042.6 1022.0
21 15.11 штиль 0
{3}
10 км ясно -5.7 -13.5 54 -6 -6 по сезону 1044.0 1023.2
00 16.11 штиль 0
{3}
10 км ясно -5.7 -13.5 54 -6 -6 по сезону 1044.5 1023.8
03 16.11 СЗ 1-2
{3}
10 км ясно -7.7 -13.2 65 -10 -10 прохладно 1045.3 1024.3 -7.9 <0.5
06 16.11 З 1-3
{4}
10 км 4/0
[Ci fib]
-5.3 -12.3 58 -7 -7 по сезону 1045.6 1024.8
09 16.11 З 2-4
{4}
10 км 8/0
[Ci]
-1.5 -11.6 46 -5 -4 по сезону 1045.0 1024.6
12 16.11 З 2-4
{4}
10 км 10/0
[Ci]
-0.8 -12.5 41 -4 -4 по сезону 1044.3 1023.9
15 16.11 З 2-4
{5}
10 км 10/0
[Ci]
-2.4 -11.6 49 -6 -6 по сезону 1043.4 1022.9 -0.6
18 16.11 З 2-4
{5}
10 км 10/0
[Cc]
-3.6 -12.2 51 -7 -7 по сезону 1042.7 1022.2
21 16.11 З 2-4
{5}
10 км 9/9 600 м
[Sc]
-3.8 -11.5 55 -7 -7 по сезону 1041.2 1020.6
00 17.11 З 2-4
{6}
10 км 10/0
[Ac trans Cc]
-4.1 -10.5 61 -8 -8 по сезону 1039.1 1018.5
03 17.11 З 3-6
{7}
10 км 10/0
[Ac As]
-2.9 -6.0 79 -8 -8 по сезону 1036.6 1016.2 -4.1 <0.5
06 17.11 З 3-5
{8}
10 км 10/8 1000 м
[Sc Ac As]
-3.0 -4.7 88 -8 -8 по сезону 1034.7 1014.3
09 17.11 З 3-6
{6}
10 км 9/6 600 м
[Sc Ac trans]
-1.2 -3.8 82 -6 -6 по сезону 1031.4 1011.3
12 17.11 З 2-5
{7}
4000 м слабая переохл. морось (гололёд) 10/10 200 м
[St]
-1.6 -2.1 96 -6 -6 по сезону 1028.9 1008.7
15 17.11 З 2-4
{6}
10 км в посл. час переохл. осадки {морось} 10/10 200 м
[St]
-1.4 -1.9 96 -5 -5 по сезону 1026.0 1006.0 -1.2 0.9
18 17.11 З 2-5
{6}
10 км {морось} 10/10 200 м
[St]
-0.2 -0.8 96 -4 -4 по сезону 1022.9 1002.9
21 17.11 З 2-5
{6}
10 км слабый снег {ливн. осадки} 10/10 200 м
[Frnb]
-0.6 -1.0 97 -5 -5 по сезону 1020.2 1000.3
00 18.11 З 2-4
{5}
2000 м снег {ливн. осадки} 10/10 200 м
[Frnb Ns]
-0.8 -1.2 97 -5 -5 по сезону 1018.4 998.5
03 18.11 З 2-5
{6}
10 км слабый снег 10/10 200 м
[Frnb]
-0.6 -1.0 97 -5 -5 по сезону 1017.6 997.7 -1.4 5 3
06 18.11 З 1-3
{5}
3000 м слабый снег {ливн. осадки} 10/10 200 м
[Frnb]
-0.6 -1.0 97 -3 -3 по сезону 1017.9 998.0
09 18.11 З 1-2
{3}
3200 м слабый снег 10/10 200 м
[Sc]
-0.2 -0.5 98 -2 -2 по сезону 1019.1 999.2
12 18.11 З 1-2
{3}
1000 м снег 10/10 200 м
[Frnb Ns]
-0.1 -0.4 98 -2 -2 по сезону 1020.3 1000.4
15 18.11 штиль 0
{2}
1000 м снег 10/10 200 м
[Frnb Ns]
-0.2 -0.5 98 -2 -2 по сезону 1021.4 1001.5 0.0 5
18 18.11 штиль 0
{2}
1000 м снег 10/10 200 м
[Frnb Ns]
-0.2 -0.5 98 -2 -2 по сезону 1022.4 1002.5
21 18.11 штиль 0 1000 м снег 10/10 200 м
[Frnb Ns]
0.0 -0.3 98 -1 -1 тепло 1023.6 1003.6
00 19.11 штиль 0 500 м туман {снег} 10/10 100 м
[Frnb]
0.0 -0.3 98 -1 -1 тепло 1024.4 1004.4
03 19.11 штиль 0 500 м туман 10/10 100 м
[Frnb]
0.0 -0.3 98 -1 -1 тепло 1025.0 1005.0 -0.2 3 14
06 19.11 штиль 0 2200 м дымка {снег, туман} 10/10 200 м
[Frnb]
+0.1 -0.2 98 -1 -1 тепло 1026.3 1006.3
09 19.11 СЗ 1-4
{4}
10 км в посл. час снег 10/10 300 м
[Frnb]
+0.8 +0.3 96 -1 -1 тепло 1027.7 1007.7
12 19.11 СЗ 1-3
{4}
4000 м слабый снег 10/10 300 м
[Frnb]
+0.6 +0.1 96 -2 -2 по сезону 1028.0 1008.0
15 19.11 С 2-4
{5}
10 км в посл. час снег 9/6 300 м
[Frnb Ac trans]
+0.1 -0.8 94 -4 -4 по сезону 1028.6 1008.5 +0.8 0.9
18 19.11 С 2-5
{6}
10 км {снег} 10/10 300 м
[Frnb]
-0.4 -1.6 92 -4 -4 по сезону 1029.0 1008.9
21 19.11 С 2-5
{6}
10 км 10/10 300 м
[Frnb]
-0.9 -2.2 91 -5 -5 по сезону 1029.0 1008.9
00 20.11 С 2-4
{5}
10 км 10/10 300 м
[Frnb]
-1.5 -2.9 90 -5 -5 по сезону 1029.0 1008.8
03 20.11 С 1-4
{5}
10 км {снег} 10/10 300 м
[Frnb]
-2.0 -3.5 89 -4 -4 по сезону 1027.9 1007.7 -2.0 0.0 9
06 20.11 С 1-4
{5}
10 км слабый снег 9/9 300 м
[Sc]
-3.1 -4.5 90 -5 -5 по сезону 1027.3 1007.2 -3.1
09 20.11 СЗ 2-5
{6}
10 км {снег} 10/8 600 м
[Sc Ac As]
-3.5 -6.7 78 -7 -7 по сезону 1026.0 1005.8
12 20.11 СЗ 2-5
{7}
10 км {снег} 10/8 300 м
[Frnb Ac As]
-3.9 -5.8 87 -8 -8 по сезону 1024.1 1003.8
15 20.11 З 3-6
{8}
10 км 10/10 600 м
[Sc]
-4.8 -5.8 93 -10 -10 по сезону 1022.1 1001.9 -2.0 0.0
18 20.11 З 3-6
{9}
10 км слабый ливневой снег 9/9 300 м
[Cb cap]
-4.3 -5.5 91 -10 -10 по сезону 1019.9 999.7
21 20.11 З 3-6
{8}
10 км {ливн. осадки} 9/9 300 м
[Cb cap]
-4.0 -5.5 89 -9 -9 по сезону 1017.8 997.6
00 21.11 З 2-5
{8}
10 км {ливн. осадки} 10/10 600 м
[Sc]
-3.8 -5.3 89 -8 -8 по сезону 1016.3 996.3
03 21.11 З 2-6
{7}
4000 м слабый снег 10/10 300 м
[Frnb]
-3.2 -4.2 93 -7 -7 по сезону 1015.1 995.1 -4.9 0.3 9
06 21.11 СЗ 2-6
{7}
4000 м слабый снег 10/10 300 м
[Frnb]
-1.7 -2.8 92 -6 -6 по сезону 1015.0 995.1
09 21.11 СЗ 2-7
{7}
10 км слабый снег 10/10 300 м
[Frnb]
-0.7 -3.5 81 -4 -4 по сезону 1014.7 994.9
12 21.11 СЗ 3-9
{10}
10 км слабый ливневой снег 9/9 600 м
[Cb cap]
-0.9 -6.6 65 -5 -5 по сезону 1014.9 995.1
15 21.11 СЗ 3-7
{10}
10 км {ливн. осадки} 8/8 600 м
[Cb cap]
-2.1 -8.8 60 -7 -7 по сезону 1015.9 996.0 -0.5 0.2
18 21.11 СЗ 2-4
{8}
10 км {ливн. осадки} 6/0
[Ac trans]
-3.3 -8.0 70 -7 -7 по сезону 1015.4 995.4

 

Местоположение метеостанции Нижний Новгород (Нижегородская область, Россия): широта 56.27 долгота 44.00 высота над уровнем моря 157 м.

В архиве по умолчанию представлена погода в Нижнем Новгороде за последнюю неделю. Архивные данные за месяц целиком и за предыдущие месяцы, начиная с января 2011 года, Вы можете получить, выбрав интересующий диапазон дат из раскрывающегося списка и нажав кнопку "Ввод!".


*Определитесь, кто Вы:
робот инопланетянин человек

Внимание! Время в таблицах - всемирное. Для получения местного времени необходимо прибавить поправку, которая в Нижнем Новгороде равна 3 ч.

Смотрите также архив погоды в соседних городах и на ближайших метеорологических станциях:

Погода в Нижнем Новгороде аэропорт (Нижегородская область, Россия) (15 км)
Погода в Дальнем Константиново (Нижегородская область, Россия) (53 км)
Погода в Балахне (Нижегородская область, Россия) (54 км)
Погода в Волжской ГМО (Нижегородская область, Россия) (57 км)
Погода в Семенове (Нижегородская область, Россия) (60 км)
Погода в Павлово (Нижегородская область, Россия) (70 км)
Погода в Лысково (Нижегородская область, Россия) (70 км)
Погода в Арзамасе (Нижегородская область, Россия) (101 км)
Погода в Воскресенском (Нижегородская область, Россия) (106 км)
Погода в Вязниках (Владимирская область, Россия) (113 км)

Пояснения к столбцам:

Ветер - указаны скорость ветра в м/с - средняя за 10 мин, порывы в срок и между сроками (в фигурных скобках) и направление, откуда дует ветер: С - северный, СВ - северо-восточный, В - восточный, ЮВ - юго-восточный, Ю - южный, ЮЗ - юго-западный, З - западный, СЗ - северо-западный.
Видимость - горизонтальная дальность видимости в метрах или километрах. При видимости от 1 до 10 км при отсутствии осадков обычно наблюдается дымка, при ухудшении видимости до 1 км и менее - туман. В сухую погоду видимость может ухудшаться дымом, пылью или мглою.
Явления - указаны атмосферные явления, наблюдавшиеся в срок или в последний час перед сроком; фигурными скобками обозначены явления, наблюдавшиеся между сроками (за 1-3 часа до срока); квадратными скобками обозначены град или гололедные отложения с указанием их диаметра в мм.
Облачность - указаны через наклонную черту общая и нижняя облачность в баллах и высота нижней границы облаков в метрах; квадратными скобками обозначены формы облаков: Ci - перистые, Cs - перисто-слоистые, Cc - перисто-кучевые, Ac - высококучевые, As - высокослоистые, Sc - слоисто-кучевые, Ns - слоисто-дождевые, Cu - кучевые, Cb - кучево-дождевые. Подробнее классификацию облаков см. в Атласе облаков (PDF).
T - Температура воздуха - температура, измеренная на высоте 2 м над землей.
Td - Температура точки росы - температура, при понижении до которой содержащийся в воздухе водяной пар достигнет насыщения.
f - Относительная влажность воздуха - влажноcть воздуха, измеренная на высоте 2 м над землей.
Te - Эффективная температура - температура, которую ощущает одетый по сезону человек в тени. Характеристика душности погоды. При расчете учитывается влияние влажности воздуха и скорости ветра на теплоощущения человека.
Tes - Эффективная температура на солнце - температура, которую ощущает человек, с поправкой на солнечный нагрев. Характеристика знойности погоды. Зависит от высоты солнца над горизонтом, облачности и скорости ветра. Ночью, в пасмурную погоду, а также при ветре 12 м/с и более поправка равна нулю.
P - Атмосферное давление - приведенное к уровню моря атмосферное давление.
Po - Атмосферное давление - измеренное на уровне метеостанции атмосферное давление.
Tmin - Минимальная температура - минимум температуры воздуха на высоте 2 м над землей.
Tmax - Максимальная температура - максимум температуры воздуха на высоте 2 м над землей.
R - Количество осадков - Количество выпавших осадков за период времени, мм. При наведении курсора мыши на число - период времени, за который выпало указанное количество осадков.
R24 - Количество осадков - Количество выпавших осадков за 24 часа, мм.
S - Снежный покров - Высота снежного покрова, см. При наведении курсора мыши на число - состояние снежного покрова и степень покрытия местности в баллах.